Hourly Weather Kismarja

Today, 22 October, Thursday

Time Temperature Precipitation Wind Pressure Humidity
00:00 +10°C° 0 mm 3 mps 758 mmHg 65%
01:00 +10°C° 0 mm 2 mps 758 mmHg 65%
02:00 +9°C° 0 mm 2 mps 758 mmHg 65%
03:00 +9°C° 0 mm 2 mps 758 mmHg 65%
04:00 +9°C° 0 mm 2 mps 758 mmHg 65%
05:00 +10°C° 0 mm 1 mps 758 mmHg 64%
06:00 +10°C° 0 mm 1 mps 758 mmHg 63%
07:00 +10°C° 0 mm 1 mps 758 mmHg 62%
08:00 +12°C° 0 mm 1 mps 758 mmHg 56%
09:00 +14°C° 0 mm 1 mps 758 mmHg 50%
10:00 +16°C° 0 mm 1 mps 758 mmHg 44%
11:00 +18°C° 0 mm 1 mps 758 mmHg 42%
12:00 +19°C° 0 mm 1 mps 758 mmHg 40%
13:00 +20°C° 0 mm 1 mps 758 mmHg 38%
14:00 +19°C° 0 mm 1 mps 757 mmHg 42%
15:00 +18°C° 0 mm 1 mps 757 mmHg 46%
16:00 +18°C° 0 mm 1 mps 757 mmHg 50%
17:00 +16°C° 0 mm 1 mps 757 mmHg 52%
18:00 +15°C° 0 mm 1 mps 757 mmHg 55%
19:00 +14°C° 0 mm 1 mps 757 mmHg 58%
20:00 +13°C° 0 mm 1 mps 757 mmHg 59%
21:00 +13°C° 0 mm 2 mps 757 mmHg 61%
22:00 +12°C° 0 mm 2 mps 757 mmHg 63%
23:00 +12°C° 0 mm 2 mps 757 mmHg 64%

Tomorrow, 23 October, Friday

Time Temperature Precipitation Wind Pressure Humidity
00:00 +11°C° 0 mm 3 mps 757 mmHg 64%
01:00 +11°C° 0 mm 3 mps 757 mmHg 65%
02:00 +11°C° 0 mm 3 mps 757 mmHg 64%
03:00 +11°C° 0 mm 3 mps 756 mmHg 64%
04:00 +10°C° 0 mm 2 mps 756 mmHg 63%
05:00 +10°C° 0 mm 2 mps 756 mmHg 64%
06:00 +10°C° 0 mm 2 mps 756 mmHg 65%
07:00 +10°C° 0 mm 2 mps 756 mmHg 65%
08:00 +12°C° 0 mm 3 mps 756 mmHg 60%
09:00 +14°C° 0 mm 3 mps 755 mmHg 54%
10:00 +17°C° 0 mm 4 mps 755 mmHg 49%
11:00 +18°C° 0 mm 4 mps 755 mmHg 48%
12:00 +19°C° 0 mm 5 mps 755 mmHg 47%
13:00 +20°C° 0 mm 5 mps 754 mmHg 46%
14:00 +19°C° 0 mm 4 mps 754 mmHg 51%
15:00 +18°C° 0 mm 3 mps 754 mmHg 56%
16:00 +17°C° 0 mm 2 mps 753 mmHg 60%
17:00 +16°C° 0 mm 2 mps 753 mmHg 63%
18:00 +16°C° 0 mm 2 mps 753 mmHg 66%
19:00 +15°C° 0 mm 2 mps 753 mmHg 68%
20:00 +15°C° 0 mm 2 mps 753 mmHg 67%
21:00 +13°C° 0 mm 3 mps 753 mmHg 66%
22:00 +13°C° 0 mm 3 mps 753 mmHg 65%
23:00 +13°C° 0 mm 3 mps 753 mmHg 63%

Day after tomorrow, 24 October, Saturday

Time Temperature Precipitation Wind Pressure Humidity
00:00 +13°C° 0 mm 3 mps 753 mmHg 62%
01:00 +13°C° 0 mm 4 mps 752 mmHg 61%
02:00 +13°C° 0 mm 4 mps 752 mmHg 61%
03:00 +13°C° 0 mm 4 mps 752 mmHg 61%
04:00 +13°C° 0 mm 5 mps 752 mmHg 61%
05:00 +13°C° 0 mm 5 mps 752 mmHg 63%
06:00 +13°C° 0 mm 5 mps 752 mmHg 65%
07:00 +13°C° 0 mm 5 mps 752 mmHg 67%
08:00 +14°C° 0 mm 4 mps 752 mmHg 69%
09:00 +15°C° 0 mm 4 mps 753 mmHg 71%
10:00 +17°C° 0 mm 4 mps 753 mmHg 72%
11:00 +17°C° 0 mm 4 mps 753 mmHg 71%
12:00 +18°C° 0 mm 3 mps 753 mmHg 70%
13:00 +18°C° 0 mm 3 mps 753 mmHg 68%
14:00 +18°C° 0 mm 2 mps 753 mmHg 70%
15:00 +17°C° 0 mm 2 mps 753 mmHg 73%
16:00 +18°C° 0 mm 1 mps 753 mmHg 75%
17:00 +16°C° 0 mm 1 mps 754 mmHg 77%
18:00 +16°C° 0 mm 1 mps 754 mmHg 78%
19:00 +15°C° 0 mm 1 mps 754 mmHg 80%
20:00 +15°C° 0 mm 1 mps 755 mmHg 82%
21:00 +14°C° 0 mm 1 mps 755 mmHg 85%
22:00 +14°C° 0 mm 1 mps 755 mmHg 87%
23:00 +13°C° 0 mm 1 mps 755 mmHg 88%

, 25 October, Sunday

Time Temperature Precipitation Wind Pressure Humidity
00:00 +13°C° 0 mm 2 mps 755 mmHg 90%
01:00 +12°C° 0 mm 2 mps 754 mmHg 91%
02:00 +12°C° 0 mm 2 mps 754 mmHg 92%
03:00 +11°C° 0 mm 3 mps 754 mmHg 92%
04:00 +10°C° 0 mm 3 mps 754 mmHg 93%
05:00 +10°C° 0 mm 3 mps 754 mmHg 92%
06:00 +10°C° 0 mm 3 mps 755 mmHg 91%
07:00 +10°C° 0 mm 3 mps 755 mmHg 90%
08:00 +12°C° 0 mm 3 mps 754 mmHg 82%
09:00 +14°C° 0 mm 3 mps 754 mmHg 75%
10:00 +17°C° 0 mm 3 mps 754 mmHg 67%
11:00 +18°C° 0 mm 3 mps 754 mmHg 63%
12:00 +19°C° 0 mm 2 mps 754 mmHg 59%
13:00 +20°C° 0 mm 2 mps 753 mmHg 55%
14:00 +19°C° 0 mm 2 mps 753 mmHg 59%
15:00 +18°C° 0 mm 2 mps 753 mmHg 63%
16:00 +17°C° 0 mm 2 mps 753 mmHg 66%
17:00 +16°C° 0 mm 2 mps 753 mmHg 70%
18:00 +16°C° 0 mm 1 mps 753 mmHg 74%
19:00 +15°C° 0 mm 1 mps 753 mmHg 77%
20:00 +15°C° 0.3 mm 1 mps 753 mmHg 81%
21:00 +15°C° 0.3 mm 1 mps 753 mmHg 84%
22:00 +15°C° 0.3 mm 1 mps 753 mmHg 87%
23:00 +15°C° 0.1 mm 2 mps 753 mmHg 87%

25 October, Sunday

Time Temperature Precipitation Wind Pressure Humidity
00:00 +13°C° 0 mm 2 mps 755 mmHg 90%
01:00 +12°C° 0 mm 2 mps 754 mmHg 91%
02:00 +12°C° 0 mm 2 mps 754 mmHg 92%
03:00 +11°C° 0 mm 3 mps 754 mmHg 92%
04:00 +10°C° 0 mm 3 mps 754 mmHg 93%
05:00 +10°C° 0 mm 3 mps 754 mmHg 92%
06:00 +10°C° 0 mm 3 mps 755 mmHg 91%
07:00 +10°C° 0 mm 3 mps 755 mmHg 90%
08:00 +12°C° 0 mm 3 mps 754 mmHg 82%
09:00 +14°C° 0 mm 3 mps 754 mmHg 75%
10:00 +17°C° 0 mm 3 mps 754 mmHg 67%
11:00 +18°C° 0 mm 3 mps 754 mmHg 63%
12:00 +19°C° 0 mm 2 mps 754 mmHg 59%
13:00 +20°C° 0 mm 2 mps 753 mmHg 55%
14:00 +19°C° 0 mm 2 mps 753 mmHg 59%
15:00 +18°C° 0 mm 2 mps 753 mmHg 63%
16:00 +17°C° 0 mm 2 mps 753 mmHg 66%
17:00 +16°C° 0 mm 2 mps 753 mmHg 70%
18:00 +16°C° 0 mm 1 mps 753 mmHg 74%
19:00 +15°C° 0 mm 1 mps 753 mmHg 77%
20:00 +15°C° 0.3 mm 1 mps 753 mmHg 81%
21:00 +15°C° 0.3 mm 1 mps 753 mmHg 84%
22:00 +15°C° 0.3 mm 1 mps 753 mmHg 87%
23:00 +15°C° 0.1 mm 2 mps 753 mmHg 87%

26 October, Monday

Time Temperature Precipitation Wind Pressure Humidity
00:00 +15°C° 0.1 mm 2 mps 752 mmHg 88%
01:00 +14°C° 0.1 mm 2 mps 752 mmHg 88%
02:00 +14°C° 0 mm 2 mps 752 mmHg 88%
03:00 +14°C° 0 mm 2 mps 751 mmHg 89%
04:00 +13°C° 0 mm 3 mps 751 mmHg 89%
05:00 +14°C° 0 mm 2 mps 751 mmHg 88%
06:00 +14°C° 0 mm 1 mps 751 mmHg 88%
07:00 +14°C° 0 mm 1 mps 751 mmHg 87%
08:00 +15°C° 0 mm 1 mps 751 mmHg 83%
09:00 +16°C° 0 mm 1 mps 750 mmHg 78%
10:00 +16°C° 0 mm 1 mps 750 mmHg 74%
11:00 +18°C° 0 mm 1 mps 750 mmHg 69%
12:00 +19°C° 0 mm 1 mps 750 mmHg 65%
13:00 +20°C° 0 mm 1 mps 750 mmHg 60%
14:00 +19°C° 0 mm 1 mps 750 mmHg 62%
15:00 +19°C° 0 mm 1 mps 749 mmHg 63%
16:00 +18°C° 0 mm 1 mps 749 mmHg 65%
17:00 +16°C° 0 mm 1 mps 749 mmHg 67%
18:00 +16°C° 0 mm 2 mps 749 mmHg 70%
19:00 +15°C° 0 mm 2 mps 750 mmHg 73%
20:00 +15°C° 0 mm 2 mps 750 mmHg 74%
21:00 +14°C° 0 mm 2 mps 750 mmHg 75%
22:00 +14°C° 0 mm 2 mps 750 mmHg 77%
23:00 +14°C° 0 mm 2 mps 750 mmHg 77%

27 October, Tuesday

Time Temperature Precipitation Wind Pressure Humidity
00:00 +13°C° 0 mm 1 mps 750 mmHg 77%
01:00 +13°C° 0 mm 1 mps 750 mmHg 78%
02:00 +13°C° 0 mm 1 mps 750 mmHg 77%
03:00 +13°C° 0 mm 2 mps 750 mmHg 77%
04:00 +13°C° 0 mm 2 mps 750 mmHg 76%
05:00 +13°C° 0 mm 2 mps 751 mmHg 75%
06:00 +13°C° 0 mm 2 mps 751 mmHg 74%
07:00 +13°C° 0 mm 2 mps 751 mmHg 72%
08:00 +15°C° 0 mm 2 mps 751 mmHg 66%
09:00 +17°C° 0 mm 2 mps 751 mmHg 59%
10:00 +19°C° 0 mm 2 mps 751 mmHg 52%
11:00 +20°C° 0 mm 2 mps 751 mmHg 50%
12:00 +20°C° 0 mm 2 mps 751 mmHg 48%
13:00 +21°C° 0 mm 2 mps 751 mmHg 46%
14:00 +20°C° 0 mm 2 mps 751 mmHg 51%
15:00 +19°C° 0 mm 2 mps 750 mmHg 55%
16:00 +18°C° 0 mm 2 mps 750 mmHg 60%
17:00 +17°C° 0 mm 2 mps 750 mmHg 63%
18:00 +16°C° 0 mm 2 mps 751 mmHg 66%
19:00 +15°C° 0 mm 2 mps 751 mmHg 69%
20:00 +15°C° 0 mm 2 mps 751 mmHg 69%
21:00 +15°C° 0 mm 2 mps 751 mmHg 70%
22:00 +15°C° 0 mm 2 mps 751 mmHg 70%
23:00 +14°C° 0 mm 2 mps 751 mmHg 71%
Show more